Weather observations for the past three days for
N. Kingston / Quonset
| Date | Time (edt) | Wind (mph) | Vis. (mi.) | Weather | Sky Cond. | Temperature (ºF) | Relative Humidity | Wind Chill (°F) | Heat Index (°F) | Pressure | Precipitation (in) | ||||||
|---|---|---|---|---|---|---|---|---|---|---|---|---|---|---|---|---|---|
| Air | Dwpt | 6 hour | altimeter (in) | sea level (mb) | 1 hr | 3 hr | 6 hr | ||||||||||
| Max. | Min. | ||||||||||||||||
| 03 | 20:55 | SW 6 | 10.00 | Fair | CLR | 50 | 24.8 | 37% | 48 | 29.83 | 0.0 | ||||||
| 03 | 20:35 | W 5 | 10.00 | Fair | CLR | 51.8 | 24.8 | 35% | 29.82 | 0.0 | |||||||
| 03 | 20:15 | W 6 | 10.00 | Fair | CLR | 51.8 | 23 | 32% | 29.81 | 0.0 | |||||||
| 03 | 19:55 | NW 10 | 10.00 | Fair | CLR | 51.8 | 23 | 57 | 52.7 | 32% | 29.81 | 0.0 | |||||
| 03 | 19:35 | NW 13 G 22 | 10.00 | Fair | CLR | 53.6 | 23 | 30% | 29.8 | 0.0 | |||||||
| 03 | 19:15 | NW 17 G 22 | 10.00 | Partly Cloudy | SCT070 | 53.6 | 23 | 30% | 29.79 | 0.0 | |||||||
| 03 | 18:55 | NW 16 G 25 | 10.00 | Mostly Cloudy | BKN070 | 55.4 | 23 | 28% | 29.78 | 0.0 | |||||||
| 03 | 18:35 | NW 14 G 24 | 10.00 | Mostly Cloudy | BKN070 | 55.4 | 23 | 28% | 29.77 | 0.0 | |||||||
| 03 | 18:15 | NW 18 G 24 | 10.00 | Overcast | OVC070 | 55.4 | 23 | 28% | 29.76 | 0.0 | |||||||
| 03 | 17:55 | NW 21 G 29 | 10.00 | Mostly Cloudy and Breezy | BKN070 | 53.6 | 23 | 30% | 29.76 | 0.0 | |||||||
| 03 | 17:50 | NW 18 G 26 | 10.00 | Mostly Cloudy | BKN070 | 55.4 | 23 | 28% | 29.74 | 0.0 | |||||||
| 03 | 17:42 | W 18 G 26 | 10.00 | Overcast | OVC070 | 55.4 | 23 | 28% | 29.75 | 0.0 | |||||||
| 03 | 16:50 | NW 17 G 30 | 10.00 | Mostly Cloudy | BKN070 | 55.4 | 24.8 | 31% | 29.72 | 0.0 | |||||||
| 03 | 15:50 | NW 22 G 30 | 10.00 | Overcast and Breezy | OVC070 | 55.4 | 24.8 | 31% | 29.71 | 0.0 | |||||||
| 03 | 14:50 | NW 16 G 28 | 10.00 | Overcast | OVC065 | 55.4 | 24.8 | 31% | 29.71 | 0.0 | |||||||
| 03 | 12:55 | NW 21 G 29 | 10.00 | Overcast and Breezy | BKN048 BKN065 OVC075 | 51.8 | 28.4 | 41% | 29.72 | 0.0 | |||||||
| 03 | 12:35 | NW 21 G 32 | 10.00 | Overcast and Breezy | OVC046 | 51.8 | 30.2 | 44% | 29.72 | 0.0 | |||||||
| 03 | 12:15 | NW 28 G 33 | 10.00 | Overcast and Windy | OVC046 | 51.8 | 32 | 47% | 29.71 | 0.0 | |||||||
| 03 | 11:55 | NW 28 G 35 | 10.00 | Overcast and Windy | BKN043 OVC050 | 51.8 | 32 | 47% | 29.71 | 0.0 | |||||||
| 03 | 11:50 | NW 25 G 35 | 10.00 | Overcast and Breezy | BKN043 OVC050 | 51.8 | 32 | 47% | 29.71 | 0.0 | |||||||
| 03 | 11:35 | NW 22 G 29 | 10.00 | Overcast and Breezy | BKN040 BKN050 OVC075 | 51.8 | 33.8 | 50% | 29.71 | 0.0 | |||||||
| 03 | 11:15 | NW 23 G 32 | 10.00 | Mostly Cloudy and Breezy | BKN040 BKN050 BKN060 | 51.8 | 32 | 47% | 29.71 | 0.0 | |||||||
| 03 | 10:55 | NW 22 G 32 | 10.00 | Overcast and Breezy | SCT040 BKN046 OVC050 | 50 | 32 | 50% | 44 | 29.7 | 0.0 | ||||||
| 03 | 10:50 | NW 30 | 10.00 | Mostly Cloudy and Windy | BKN044 BKN049 BKN060 | 51.8 | 33.8 | 50% | 29.7 | 0.0 | |||||||
| 03 | 10:35 | NW 20 G 31 | 10.00 | Overcast | SCT037 BKN044 OVC049 | 50 | 32 | 50% | 44 | 29.7 | 0.0 | ||||||
| 03 | 10:15 | NW 24 G 28 | 10.00 | Overcast and Breezy | BKN037 OVC046 | 50 | 32 | 50% | 43 | 29.7 | 0.0 | ||||||
| 03 | 09:55 | W 22 G 25 | 10.00 | Mostly Cloudy and Breezy | BKN039 BKN046 | 50 | 32 | 50% | 44 | 29.7 | 0.0 | ||||||
| 03 | 09:50 | NW 22 G 28 | 10.00 | Mostly Cloudy and Breezy | BKN041 BKN048 | 50 | 32 | 50% | 44 | 29.7 | 0.0 | ||||||
| 03 | 09:35 | NW 20 G 29 | 10.00 | Mostly Cloudy | BKN039 BKN048 | 50 | 32 | 50% | 44 | 29.71 | 0.0 | ||||||
| 03 | 09:15 | NW 20 G 29 | 10.00 | Partly Cloudy | SCT037 | 50 | 32 | 50% | 44 | 29.7 | 0.0 | ||||||
| 03 | 08:35 | NW 22 G 29 | 10.00 | Fair and Breezy | CLR | 48.2 | 32 | 54% | 41 | 29.71 | 0.0 | ||||||
| 03 | 08:15 | NW 23 G 29 | 10.00 | Fair and Breezy | CLR | 48.2 | 32 | 54% | 41 | 29.72 | 0.0 | ||||||
| 03 | 07:55 | NW 14 G 23 | 10.00 | Fair | CLR | 46.4 | 30.2 | 49.8 | 43.9 | 53% | 41 | 29.72 | 0.0 | ||||
| 03 | 07:36 | NW 18 | 10.00 | Fair | CLR | 46.4 | 30.2 | 53% | 40 | 29.72 | 0.0 | ||||||
| 03 | 07:15 | NW 16 G 22 | 10.00 | Fair | CLR | 44.6 | 30.2 | 57% | 38 | 29.73 | 0.0 | ||||||
| 03 | 06:55 | NW 14 | 10.00 | Fair | CLR | 44.6 | 30.2 | 57% | 39 | 29.74 | 0.0 | ||||||
| 03 | 06:35 | NW 13 | 10.00 | Fair | CLR | 44.6 | 30.2 | 57% | 39 | 29.73 | 0.0 | ||||||
| 03 | 06:15 | NW 13 | 10.00 | Fair | CLR | 44.6 | 30.2 | 57% | 39 | 29.72 | 0.0 | ||||||
| 03 | 05:55 | NW 12 | 10.00 | A Few Clouds | FEW110 | 44.6 | 28.4 | 53% | 39 | 29.73 | 0.0 | ||||||
| 03 | 05:35 | NW 16 | 10.00 | Mostly Cloudy | FEW065 BKN095 | 46.4 | 28.4 | 50% | 40 | 29.73 | 0.0 | ||||||
| 03 | 05:15 | NW 16 | 10.00 | Overcast | BKN065 OVC085 | 46.4 | 28.4 | 50% | 40 | 29.73 | 0.0 | ||||||
| 03 | 04:55 | NW 12 | 10.00 | Overcast | BKN065 OVC085 | 46.4 | 28.4 | 50% | 42 | 29.74 | 0.0 | ||||||
| 03 | 04:35 | NW 12 | 10.00 | Overcast | OVC085 | 46.4 | 28.4 | 50% | 42 | 29.74 | 0.0 | ||||||
| 03 | 04:15 | NW 16 | 10.00 | Overcast | SCT050 OVC085 | 46.4 | 26.6 | 46% | 40 | 29.74 | 0.0 | ||||||
| 03 | 03:55 | NW 14 | 10.00 | Overcast | SCT050 OVC110 | 48.2 | 26.6 | 43% | 43 | 29.75 | 0.0 | ||||||
| 03 | 03:35 | NW 13 | 10.00 | Overcast | BKN050 BKN070 OVC120 | 48.2 | 26.6 | 43% | 43 | 29.76 | 0.0 | ||||||
| 03 | 03:15 | N 14 | 10.00 | Overcast | FEW046 BKN050 OVC080 | 48.2 | 26.6 | 43% | 43 | 29.76 | 0.0 | ||||||
| 03 | 02:55 | NW 12 | 10.00 | Overcast | FEW046 OVC050 | 50 | 26.6 | 40% | 46 | 29.76 | 0.0 | ||||||
| 03 | 02:35 | NW 17 | 10.00 | Overcast | OVC060 | 50 | 26.6 | 40% | 45 | 29.77 | 0.0 | ||||||
| 03 | 02:15 | NW 14 | 10.00 | Overcast | OVC060 | 50 | 28.4 | 43% | 45 | 29.78 | 0.0 | ||||||
| 03 | 01:56 | NW 12 | 10.00 | Overcast | BKN060 OVC080 | 50 | 28.4 | 43% | 46 | 29.79 | 0.0 | ||||||
| 03 | 01:35 | NW 14 | 10.00 | Overcast | OVC060 | 50 | 30.2 | 47% | 45 | 29.79 | 0.0 | ||||||
| 03 | 01:15 | NW 16 | 10.00 | Overcast | BKN060 OVC070 | 50 | 30.2 | 47% | 45 | 29.8 | 0.0 | ||||||
| 03 | 00:55 | NW 15 G 18 | 10.00 | Overcast | OVC050 | 50 | 32 | 50% | 45 | 29.8 | 0.0 | ||||||
| 03 | 00:35 | NW 12 | 10.00 | NULL | NULL | 50 | 39.2 | 67% | 46 | 29.81 | 0.0 | ||||||
| 03 | 00:15 | NW 7 | 10.00 | NULL | NULL | 50 | 46.4 | 88% | 48 | 29.82 | 0.0 | ||||||
| 02 | 23:55 | NW 3 | 10.00 | Overcast | FEW011 SCT042 OVC060 | 50 | 46.4 | 88% | 29.83 | 0.0 | |||||||
| 02 | 23:35 | W 5 | 10.00 | Overcast | SCT030 BKN055 OVC075 | 50 | 48.2 | 94% | 49 | 29.83 | 0.0 | ||||||
| 02 | 23:15 | SW 6 | 10.00 | Overcast | FEW004 OVC075 | 50 | 48.2 | 94% | 48 | 29.82 | 0.0 | ||||||
| 02 | 22:55 | SW 5 | 10.00 | Overcast | BKN004 OVC075 | 50 | 48.2 | 94% | 49 | 29.82 | 0.0 | ||||||
| 02 | 22:35 | S 6 | 10.00 | Overcast | BKN004 OVC075 | 50 | 48.2 | 94% | 48 | 29.83 | 0.0 | ||||||
| 02 | 22:15 | S 7 | 10.00 | Overcast | BKN004 OVC075 | 50 | 48.2 | 94% | 48 | 29.83 | 0.0 | ||||||
| 02 | 21:55 | S 6 | 10.00 | Overcast | OVC004 | 50 | 48.2 | 94% | 48 | 29.84 | 0.0 | ||||||
| 02 | 21:35 | S 3 | 10.00 | Overcast | BKN004 OVC060 | 50 | 48.2 | 94% | 29.84 | 0.0 | |||||||
| 02 | 21:15 | S 6 | 10.00 | Overcast | OVC060 | 50 | 48.2 | 94% | 48 | 29.84 | 0.0 | ||||||
| 02 | 20:55 | SE 6 | 10.00 | Overcast | FEW050 OVC060 | 50 | 48.2 | 94% | 48 | 29.83 | 0.0 | ||||||
| 02 | 20:35 | SE 6 | 10.00 | Overcast | OVC060 | 50 | 48.2 | 94% | 48 | 29.83 | 0.0 | ||||||
| 02 | 20:15 | SE 6 | 10.00 | Overcast | OVC050 | 50 | 48.2 | 94% | 48 | 29.83 | 0.0 | ||||||
| 02 | 19:55 | SE 7 | 10.00 | Overcast | OVC050 | 50 | 48.2 | 53.1 | 50 | 94% | 48 | 29.83 | 0.0 | ||||
| 02 | 19:35 | SE 6 | 10.00 | Overcast | OVC050 | 50 | 48.2 | 94% | 48 | 29.83 | 0.0 | ||||||
| 02 | 19:15 | S 6 | 10.00 | Overcast | OVC050 | 50 | 48.2 | 94% | 48 | 29.83 | 0.0 | ||||||
| 02 | 18:55 | S 7 | 10.00 | Overcast | OVC050 | 50 | 48.2 | 94% | 48 | 29.84 | 0.0 | ||||||
| 02 | 18:35 | SE 7 | 10.00 | Overcast | OVC048 | 50 | 48.2 | 94% | 48 | 29.83 | 0.0 | ||||||
| 02 | 18:15 | S 8 | 10.00 | Overcast | OVC050 | 50 | 48.2 | 94% | 47 | 29.83 | 0.0 | ||||||
| 02 | 17:55 | S 9 | 10.00 | Overcast | OVC050 | 50 | 48.2 | 94% | 47 | 29.83 | 0.0 | ||||||
| 02 | 17:50 | S 10 | 10.00 | Mostly Cloudy | BKN060 | 50 | 48.2 | 94% | 46 | 29.82 | 0.0 | ||||||
| 02 | 16:50 | S 14 | 10.00 | Mostly Cloudy | BKN060 | 51.8 | 48.2 | 88% | 29.82 | 0.0 | |||||||
| 02 | 15:50 | S 14 | 10.00 | Mostly Cloudy | FEW030 BKN055 | 51.8 | 46.4 | 82% | 29.83 | 0.0 | |||||||
| 02 | 14:50 | S 14 | 10.00 | Mostly Cloudy | BKN035 | 51.8 | 48.2 | 88% | 29.85 | 0.0 | |||||||
| 02 | 13:50 | S 15 | 10.00 | Mostly Cloudy | SCT030 BKN045 | 53.6 | 46.4 | 77% | 29.86 | 0.0 | |||||||
| 02 | 12:50 | S 9 | 10.00 | Mostly Cloudy | SCT060 BKN085 | 53.6 | 46.4 | 77% | 29.86 | 0.0 | |||||||
| 02 | 11:50 | S 17 | 10.00 | Mostly Cloudy | FEW060 SCT070 BKN085 | 53.6 | 44.6 | 72% | 29.87 | 0.0 | |||||||
| 02 | 10:50 | S 17 | 10.00 | Mostly Cloudy | SCT070 BKN080 BKN110 | 53.6 | 46.4 | 77% | 29.87 | 0.0 | |||||||
| 02 | 09:50 | SE 6 | 10.00 | Mostly Cloudy | SCT070 SCT080 BKN090 | 53.6 | 46.4 | 77% | 29.88 | 0.0 | |||||||
| 02 | 09:10 | Vrbl 2 | 10.00 | Partly Cloudy | FEW019 SCT090 SCT120 | 53.6 | 44.6 | 72% | 29.9 | 0.0 | |||||||
| 02 | 08:55 | SW 6 | 10.00 | Partly Cloudy | SCT090 SCT120 | 53.6 | 44.6 | 72% | 29.91 | 0.0 | |||||||
| 02 | 08:50 | Calm | 10.00 | Mostly Cloudy | FEW060 BKN090 | 53.6 | 44.6 | 72% | 29.9 | 0.0 | |||||||
| 02 | 08:35 | SW 7 | 10.00 | Mostly Cloudy | BKN090 BKN110 | 51.8 | 44.6 | 77% | 29.9 | 0.0 | |||||||
| 02 | 08:15 | SW 6 | 10.00 | Mostly Cloudy | BKN110 | 51.8 | 44.6 | 77% | 29.9 | 0.0 | |||||||
| 02 | 07:55 | S 7 | 10.00 | Mostly Cloudy | BKN110 | 51.8 | 44.6 | 52 | 48.6 | 77% | 29.9 | 0.0 | |||||
| 02 | 07:35 | SW 8 | 10.00 | Mostly Cloudy | BKN110 | 50 | 44.6 | 82% | 47 | 29.89 | 0.0 | ||||||
| 02 | 07:15 | S 9 | 10.00 | Partly Cloudy | SCT110 | 50 | 44.6 | 82% | 47 | 29.89 | 0.0 | ||||||
| 02 | 06:55 | S 7 | 10.00 | A Few Clouds | FEW090 FEW120 | 50 | 42.8 | 76% | 48 | 29.89 | 0.0 | ||||||
| 02 | 06:35 | S 9 | 10.00 | Partly Cloudy | SCT110 | 50 | 42.8 | 76% | 47 | 29.88 | 0.0 | ||||||
| 02 | 06:15 | S 8 | 10.00 | Mostly Cloudy | SCT085 BKN110 | 50 | 42.8 | 76% | 47 | 29.88 | 0.0 | ||||||
| 02 | 05:55 | S 8 | 10.00 | Overcast | OVC085 | 50 | 42.8 | 76% | 47 | 29.88 | 0.0 | ||||||
| 02 | 05:35 | S 10 | 10.00 | Mostly Cloudy | BKN085 BKN110 | 50 | 42.8 | 76% | 46 | 29.88 | 0.0 | ||||||
| 02 | 05:15 | S 9 | 10.00 | Partly Cloudy | SCT110 | 50 | 41 | 71% | 47 | 29.87 | 0.0 | ||||||
| 02 | 04:55 | S 7 | 10.00 | Partly Cloudy | SCT095 | 50 | 41 | 71% | 48 | 29.87 | 0.0 | ||||||
| 02 | 04:35 | SW 7 | 10.00 | Mostly Cloudy | FEW060 BKN095 | 48.2 | 41 | 76% | 46 | 29.87 | 0.0 | ||||||
| 02 | 04:15 | SW 8 | 10.00 | Mostly Cloudy | SCT095 BKN110 | 50 | 39.2 | 67% | 47 | 29.87 | 0.0 | ||||||
| 02 | 03:55 | SW 7 | 10.00 | Partly Cloudy | SCT110 | 50 | 39.2 | 67% | 48 | 29.88 | 0.0 | ||||||
| 02 | 03:15 | S 7 | 10.00 | A Few Clouds | FEW100 | 50 | 41 | 71% | 48 | 29.87 | 0.0 | ||||||
| 02 | 02:55 | SW 7 | 10.00 | Partly Cloudy | SCT100 | 50 | 41 | 71% | 48 | 29.87 | 0.0 | ||||||
| 02 | 02:35 | SW 12 | 10.00 | Mostly Cloudy | BKN100 | 50 | 39.2 | 67% | 46 | 29.87 | 0.0 | ||||||
| 02 | 02:15 | SW 14 G 20 | 10.00 | Overcast | OVC110 | 51.8 | 39.2 | 62% | 29.88 | 0.0 | |||||||
| 02 | 01:55 | SW 15 G 22 | 10.00 | Overcast | OVC110 | 51.8 | 37.4 | 57.7 | 50.4 | 58% | 29.87 | 0.0 | |||||
| 02 | 01:35 | SW 14 | 10.00 | Overcast | FEW085 OVC110 | 51.8 | 39.2 | 62% | 29.88 | 0.0 | |||||||
| 02 | 01:15 | SW 13 | 10.00 | Overcast | FEW075 OVC120 | 50 | 39.2 | 67% | 46 | 29.88 | 0.0 | ||||||
| 02 | 00:55 | SW 13 | 10.00 | Mostly Cloudy | SCT075 BKN120 | 50 | 39.2 | 67% | 46 | 29.88 | 0.0 | ||||||
| 02 | 00:35 | SW 13 | 10.00 | Mostly Cloudy | SCT075 BKN120 | 51.8 | 39.2 | 62% | 29.88 | 0.0 | |||||||
| 02 | 00:15 | SW 14 | 10.00 | Mostly Cloudy | BKN085 BKN120 | 51.8 | 39.2 | 62% | 29.88 | 0.0 | |||||||
| 01 | 23:55 | SW 12 | 10.00 | Overcast | OVC095 | 51.8 | 39.2 | 62% | 29.88 | 0.0 | |||||||
| 01 | 23:35 | SW 13 | 10.00 | Overcast | BKN095 OVC120 | 51.8 | 37.4 | 58% | 29.89 | 0.0 | |||||||
| 01 | 23:15 | SW 15 | 10.00 | Overcast | SCT095 OVC120 | 51.8 | 39.2 | 62% | 29.88 | 0.0 | |||||||
| 01 | 22:55 | SW 14 | 10.00 | Mostly Cloudy | BKN120 | 51.8 | 39.2 | 62% | 29.88 | 0.0 | |||||||
| 01 | 22:40 | W 13 G 17 | 10.00 | A Few Clouds | FEW120 | 51.8 | 39.2 | 62% | 29.88 | 0.0 | |||||||
| 01 | 21:50 | W 15 | 10.00 | Fair | CLR | 53.6 | 39.2 | 58% | 29.87 | 0.0 | |||||||
| 01 | 20:50 | W 15 | 10.00 | Fair | CLR | 55.4 | 37.4 | 51% | 29.85 | 0.0 | |||||||
| 01 | 19:50 | SW 14 | 10.00 | Fair | CLR | 57.2 | 33.8 | 41% | 29.82 | 0.0 | |||||||
| 01 | 18:50 | SW 17 | 10.00 | Fair | CLR | 60.8 | 33.8 | 36% | 29.79 | 0.0 | |||||||
| 01 | 17:50 | SW 21 | 10.00 | Fair and Breezy | CLR | 62.6 | 33.8 | 34% | 29.78 | 0.0 | |||||||
| 01 | 16:50 | NW 9 G 17 | 10.00 | A Few Clouds | FEW080 | 64.4 | 28.4 | 26% | 29.77 | 0.0 | |||||||
| 01 | 14:50 | NW 9 | 10.00 | Partly Cloudy | SCT070 | 60.8 | 32 | 34% | 29.79 | 0.0 | |||||||
| 01 | 13:50 | W 9 G 20 | 10.00 | Partly Cloudy | SCT050 | 60.8 | 32 | 34% | 29.8 | 0.0 | |||||||
| 01 | 12:50 | NW 14 G 25 | 10.00 | Mostly Cloudy | BKN050 | 59 | 33.8 | 39% | 29.82 | 0.0 | |||||||
| 01 | 11:50 | NW 7 G 20 | 10.00 | Mostly Cloudy | BKN044 BKN050 | 55.4 | 33.8 | 44% | 29.82 | 0.0 | |||||||
| 01 | 10:50 | N 14 | 10.00 | Overcast | BKN047 OVC050 | 53.6 | 35.6 | 51% | 29.83 | 0.0 | |||||||
| 01 | 09:50 | N 13 G 20 | 10.00 | Partly Cloudy | SCT049 | 53.6 | 35.6 | 51% | 29.83 | 0.0 | |||||||
| 01 | 08:50 | N 16 | 10.00 | Mostly Cloudy | BKN050 | 51.8 | 37.4 | 58% | 29.82 | 0.0 | |||||||
| 01 | 07:50 | NW 9 | 10.00 | Mostly Cloudy | BKN047 | 48.2 | 41 | 76% | 45 | 29.82 | 0.0 | ||||||
| 01 | 07:47 | NW 9 | 10.00 | Mostly Cloudy | BKN047 | 48.2 | 41 | 76% | 45 | 29.83 | 0.0 | ||||||
| 01 | 07:35 | NW 7 | 10.00 | Mostly Cloudy | SCT041 BKN049 | 48.2 | 41 | 76% | 46 | 29.83 | 0.0 | ||||||
| 01 | 07:15 | NW 10 | 10.00 | Overcast | OVC039 | 48.2 | 41 | 76% | 44 | 29.82 | 0.0 | ||||||
| 01 | 06:55 | W 9 | 10.00 | Overcast | OVC039 | 48.2 | 41 | 76% | 45 | 29.82 | 0.0 | ||||||
| 01 | 06:35 | NW 9 | 10.00 | Overcast | OVC037 | 48.2 | 41 | 76% | 45 | 29.81 | 0.0 | ||||||
| 01 | 06:15 | NW 9 | 10.00 | Overcast | OVC033 | 48.2 | 41 | 76% | 45 | 29.8 | 0.0 | ||||||
| 01 | 05:55 | NW 9 | 10.00 | Overcast | OVC029 | 48.2 | 41 | 76% | 45 | 29.8 | 0.0 | ||||||
| 01 | 05:35 | NW 8 | 10.00 | Overcast | OVC027 | 48.2 | 41 | 76% | 45 | 29.8 | 0.0 | ||||||
| 01 | 05:15 | NW 9 | 10.00 | Overcast | BKN027 BKN034 OVC040 | 48.2 | 41 | 76% | 45 | 29.79 | 0.0 | ||||||
| 01 | 04:55 | NW 9 | 10.00 | Overcast | OVC035 | 48.2 | 41 | 76% | 45 | 29.79 | 0.0 | ||||||
| 01 | 04:35 | NW 10 | 10.00 | Overcast | OVC035 | 48.2 | 41 | 76% | 44 | 29.79 | 0.0 | ||||||
| 01 | 04:15 | W 9 | 10.00 | Overcast | BKN033 OVC050 | 48.2 | 41 | 76% | 45 | 29.78 | 0.0 | ||||||
| 01 | 03:55 | W 10 | 10.00 | Mostly Cloudy | SCT031 BKN050 | 48.2 | 41 | 76% | 44 | 29.77 | 0.0 | ||||||
| 01 | 03:35 | NW 9 | 10.00 | Mostly Cloudy | SCT048 BKN060 | 48.2 | 41 | 76% | 45 | 29.76 | 0.0 | ||||||
| 01 | 02:55 | NW 10 | 10.00 | Mostly Cloudy | SCT030 BKN046 | 48.2 | 41 | 76% | 44 | 29.75 | 0.0 | ||||||
| 01 | 02:35 | W 9 | 10.00 | Partly Cloudy | SCT030 | 48.2 | 41 | 76% | 45 | 29.75 | 0.0 | ||||||
| 01 | 02:15 | W 10 | 10.00 | Fair | CLR | 48.2 | 41 | 76% | 44 | 29.75 | 0.0 | ||||||
| 01 | 01:55 | W 12 | 10.00 | Fair | CLR | 50 | 41 | 53.1 | 48.9 | 71% | 46 | 29.75 | 0.0 | ||||
| 01 | 01:35 | W 10 | 10.00 | Fair | CLR | 50 | 41 | 71% | 46 | 29.75 | 0.0 | ||||||
| 01 | 00:55 | NW 9 | 10.00 | Fair | CLR | 50 | 42.8 | 76% | 47 | 29.75 | 0.0 | ||||||
| 01 | 00:35 | W 7 | 10.00 | A Few Clouds | FEW070 FEW110 | 50 | 44.6 | 82% | 48 | 29.75 | 0.0 | ||||||
| 01 | 00:15 | NW 5 | 10.00 | Mostly Cloudy | BKN100 | 51.8 | 46.4 | 82% | 29.75 | 0.0 | |||||||
| 30 | 23:55 | W 7 | 10.00 | Mostly Cloudy | BKN100 | 51.8 | 48.2 | 88% | 29.74 | 0.0 | |||||||
| 30 | 23:35 | W 6 | 10.00 | A Few Clouds | FEW060 FEW100 | 51.8 | 48.2 | 88% | 29.73 | 0.0 | |||||||
| 30 | 23:15 | W 6 | 10.00 | Mostly Cloudy | BKN060 | 51.8 | 48.2 | 88% | 29.73 | 0.0 | |||||||
| 30 | 22:55 | W 6 | 10.00 | Overcast | FEW034 OVC060 | 50 | 48.2 | 94% | 48 | 29.73 | 0.0 | ||||||
| 30 | 21:50 | NE 7 | 10.00 | Partly Cloudy | SCT070 | 50 | 48.2 | 94% | 48 | 29.72 | 0.0 | ||||||
| Date | Time (edt) | Wind (mph) | Vis. (mi.) | Weather | Sky Cond. | Air | Dwpt | Max. | Min. | Relative Humidity | Wind Chill (°F) | Heat Index (°F) | altimeter (in) | sea level (mb) | 1 hr | 3 hr | 6 hr |
| 6 hour | |||||||||||||||||
| Temperature (ºF) | Pressure | Precipitation (in) | |||||||||||||||